Location: Cella
(44.7333°N, 10.5667°E)
Time: 11:53:31
(UTC+00:00)

COSMOS 1867 COOLANT - Pass Details

Date: 22 September 2021
Orbit: 770 x 802 km, 65.0° (Epoch: 15 October)

Event Time Altitude Azimuth Distance (km) Brightness Sun altitude
Rises 21:12:38 0° 325° (NW) 3,320 ? -38.3°
Reaches altitude 10° 21:15:05 10° 327° (NNW) 2,386 ? -38.5°
Enters shadow 21:17:13 24° 330° (NNW) 1,605 ? -38.8°
